Starlink 1752

operational
NORAD ID: 46338 Int'l Des: 2020-062 Owner: SPXS Country: US Constellation: starlink
LEOCIRCULARSTARLINK_TYPE

Über Starlink 1752

Beschreibung wird geladen...

Live-Position

3D-Globus wird geladen...

Nächste Überflüge

Höhenverlauf

Altitude vs Time

uPlot chart will show altitude changes over time

Zweizeiliger Elementsatz

1 46338U 20062P 25351.58528009 .00114722 00000-0 20569-2 0 9998
2 46338 53.0515 12.1776 0011287 18.7634 341.3787 15.49017825292117
Epoch: 17. Dez. 2025 • Age: 7 hours

Aktueller Status

Höhe 423.0 km
Geschwindigkeit 7.67 km/s
Subsatellitenpunkt 53.12°N, 60.52°E
Startdatum 3. Sept. 2020
Alter 5.2 years
Typ internet

Technische Details

Klassifizierung Payload
Masse 260.00 kg
Trockenmasse 248.00 kg
Gesamtmasse 260.00 kg
Länge 0.20 m
Durchmesser 2.80 m
Spannweite 9.00 m
Form Box + pan
Hersteller SPXS
Bus-Typ Starlink
Phasenstatus In Orbit
Besitzer/Staat SPXS/US

Große Konstellationen

Loading constellations...